Time,TemperatureF,DewpointF,PressureIn,WindDirection,WindDirectionDegrees,WindSpeedMPH,WindSpeedGustMPH,Humidity,HourlyPrecipIn,Conditions,Clouds,dailyrainin,SoftwareType,DateUTC
2013-01-31 00:03:00,54.0,54.0,-100.00,East,85,8.0,20.0,98,-99.99,,,-99.99,,2013-01-31 05:03:00,
2013-01-31 00:11:00,54.0,54.0,-100.00,East,90,6.0,22.0,98,-99.99,,,-99.99,,2013-01-31 05:11:00,
2013-01-31 00:22:00,54.0,54.0,-100.00,East,90,6.0,22.0,98,-99.99,,,-99.99,,2013-01-31 05:22:00,
2013-01-31 00:32:00,54.0,54.0,-100.00,East,90,6.0,22.0,98,-99.99,,,-99.99,,2013-01-31 05:32:00,
2013-01-31 00:42:00,55.0,54.0,-100.00,East,100,9.0,20.0,98,-99.99,,,-99.99,,2013-01-31 05:42:00,
2013-01-31 00:52:00,55.0,54.0,-100.00,East,100,9.0,20.0,98,-99.99,,,-99.99,,2013-01-31 05:52:00,
2013-01-31 01:01:00,55.0,54.0,-100.00,East,100,9.0,20.0,98,-99.99,,,-99.99,,2013-01-31 06:01:00,
2013-01-31 01:10:00,55.0,54.0,-100.00,East,100,9.0,20.0,98,-99.99,,,-99.99,,2013-01-31 06:10:00,
2013-01-31 09:03:00,42.0,23.0,-100.00,SW,215,9.0,23.0,46,-99.99,,,-99.99,,2013-01-31 14:03:00,
2013-01-31 09:11:00,42.0,22.0,-100.00,SSW,200,9.0,20.0,44,-99.99,,,-99.99,,2013-01-31 14:11:00,
2013-01-31 09:22:00,43.0,20.0,-100.00,SW,230,12.0,30.0,40,-99.99,,,-99.99,,2013-01-31 14:22:00,
2013-01-31 09:32:00,43.0,20.0,-100.00,SW,230,12.0,30.0,40,-99.99,,,-99.99,,2013-01-31 14:32:00,
2013-01-31 09:42:00,44.0,20.0,-100.00,SW,235,11.0,40.0,39,-99.99,,,-99.99,,2013-01-31 14:42:00,
2013-01-31 09:52:00,43.0,20.0,-100.00,SSW,205,12.0,27.0,39,-99.99,,,-99.99,,2013-01-31 14:52:00,
2013-01-31 10:03:00,43.0,20.0,-100.00,SSW,205,12.0,27.0,39,-99.99,,,-99.99,,2013-01-31 15:03:00,
2013-01-31 10:12:00,44.0,21.0,-100.00,SSW,210,11.0,25.0,39,-99.99,,,-99.99,,2013-01-31 15:12:00,
2013-01-31 10:22:00,44.0,21.0,-100.00,SW,215,12.0,32.0,39,-99.99,,,-99.99,,2013-01-31 15:22:00,
2013-01-31 10:32:00,44.0,21.0,-100.00,SW,215,12.0,32.0,39,-99.99,,,-99.99,,2013-01-31 15:32:00,
2013-01-31 10:42:00,44.0,19.0,-100.00,SW,225,14.0,40.0,37,-99.99,,,-99.99,,2013-01-31 15:42:00,
2013-01-31 10:51:00,45.0,20.0,-100.00,WSW,240,11.0,40.0,37,-99.99,,,-99.99,,2013-01-31 15:51:00,
2013-01-31 11:03:00,45.0,20.0,-100.00,WSW,240,11.0,40.0,37,-99.99,,,-99.99,,2013-01-31 16:03:00,
2013-01-31 11:13:00,44.0,20.0,-100.00,SW,235,9.0,29.0,39,-99.99,,,-99.99,,2013-01-31 16:13:00,
2013-01-31 11:22:00,44.0,20.0,-100.00,SSW,205,7.0,32.0,38,-99.99,,,-99.99,,2013-01-31 16:22:00,
2013-01-31 11:33:00,44.0,20.0,-100.00,SSW,205,7.0,32.0,38,-99.99,,,-99.99,,2013-01-31 16:33:00,
2013-01-31 11:42:00,45.0,18.0,-100.00,SSW,210,9.0,24.0,34,-99.99,,,-99.99,,2013-01-31 16:42:00,
2013-01-31 11:52:00,45.0,18.0,-100.00,SSW,205,9.0,25.0,34,-99.99,,,-99.99,,2013-01-31 16:52:00,
2013-01-31 12:03:00,45.0,18.0,-100.00,SSW,205,9.0,25.0,34,-99.99,,,-99.99,,2013-01-31 17:03:00,
2013-01-31 12:13:00,45.0,19.0,-100.00,SSW,205,9.0,26.0,34,-99.99,,,-99.99,,2013-01-31 17:13:00,
2013-01-31 12:23:00,45.0,18.0,-100.00,SW,215,11.0,28.0,33,-99.99,,,-99.99,,2013-01-31 17:23:00,
2013-01-31 12:32:00,45.0,18.0,-100.00,SW,215,11.0,28.0,33,-99.99,,,-99.99,,2013-01-31 17:32:00,
2013-01-31 12:44:00,47.0,19.0,-100.00,SW,230,12.0,28.0,33,-99.99,,,-99.99,,2013-01-31 17:44:00,
2013-01-31 12:53:00,47.0,19.0,-100.00,SW,230,12.0,28.0,33,-99.99,,,-99.99,,2013-01-31 17:53:00,
2013-01-31 13:03:00,47.0,18.0,-100.00,SSW,205,12.0,27.0,32,-99.99,,,-99.99,,2013-01-31 18:03:00,
2013-01-31 13:12:00,47.0,19.0,-100.00,WSW,250,10.0,36.0,33,-99.99,,,-99.99,,2013-01-31 18:12:00,
2013-01-31 13:22:00,47.0,18.0,-100.00,SSW,210,12.0,30.0,31,-99.99,,,-99.99,,2013-01-31 18:22:00,
2013-01-31 13:32:00,47.0,18.0,-100.00,SSW,210,12.0,30.0,31,-99.99,,,-99.99,,2013-01-31 18:32:00,
2013-01-31 13:43:00,46.0,16.0,-100.00,SW,220,14.0,32.0,29,-99.99,,,-99.99,,2013-01-31 18:43:00,
2013-01-31 13:52:00,46.0,15.0,-100.00,SW,225,12.0,29.0,29,-99.99,,,-99.99,,2013-01-31 18:52:00,
2013-01-31 14:03:00,46.0,15.0,-100.00,SW,225,12.0,29.0,29,-99.99,,,-99.99,,2013-01-31 19:03:00,
2013-01-31 14:12:00,46.0,13.0,-100.00,SW,225,13.0,32.0,27,-99.99,,,-99.99,,2013-01-31 19:12:00,
2013-01-31 14:22:00,46.0,13.0,-100.00,SW,225,13.0,32.0,27,-99.99,,,-99.99,,2013-01-31 19:22:00,
2013-01-31 14:33:00,46.0,13.0,-100.00,South,190,10.0,26.0,27,-99.99,,,-99.99,,2013-01-31 19:33:00,
2013-01-31 14:42:00,46.0,14.0,-100.00,South,180,11.0,29.0,27,-99.99,,,-99.99,,2013-01-31 19:42:00,
2013-01-31 14:52:00,45.0,13.0,-100.00,SW,235,13.0,28.0,27,-99.99,,,-99.99,,2013-01-31 19:52:00,
2013-01-31 15:02:00,45.0,13.0,-100.00,SW,235,13.0,28.0,27,-99.99,,,-99.99,,2013-01-31 20:02:00,
2013-01-31 15:11:00,45.0,13.0,-100.00,SSW,205,10.0,28.0,27,-99.99,,,-99.99,,2013-01-31 20:11:00,
2013-01-31 15:22:00,43.0,14.0,-100.00,SW,230,12.0,32.0,30,-99.99,,,-99.99,,2013-01-31 20:22:00,
2013-01-31 15:32:00,43.0,14.0,-100.00,SW,230,12.0,32.0,30,-99.99,,,-99.99,,2013-01-31 20:32:00,
2013-01-31 15:42:00,42.0,15.0,-100.00,WSW,245,9.0,26.0,33,-99.99,,,-99.99,,2013-01-31 20:42:00,
2013-01-31 15:52:00,42.0,15.0,-100.00,WSW,245,12.0,28.0,33,-99.99,,,-99.99,,2013-01-31 20:52:00,
2013-01-31 16:02:00,42.0,15.0,-100.00,WSW,245,12.0,28.0,33,-99.99,,,-99.99,,2013-01-31 21:02:00,
2013-01-31 16:12:00,42.0,15.0,-100.00,SW,235,9.0,20.0,33,-99.99,,,-99.99,,2013-01-31 21:12:00,
2013-01-31 16:22:00,42.0,15.0,-100.00,SW,235,9.0,20.0,33,-99.99,,,-99.99,,2013-01-31 21:22:00,
2013-01-31 16:32:00,41.0,14.0,-100.00,SW,235,9.0,27.0,33,-99.99,,,-99.99,,2013-01-31 21:32:00,
2013-01-31 16:42:00,40.0,13.0,-100.00,SSW,210,7.0,19.0,33,-99.99,,,-99.99,,2013-01-31 21:42:00,
2013-01-31 16:52:00,40.0,13.0,-100.00,SSW,210,7.0,19.0,33,-99.99,,,-99.99,,2013-01-31 21:52:00,
2013-01-31 17:03:00,39.0,12.0,-100.00,SW,215,14.0,31.0,33,-99.99,,,-99.99,,2013-01-31 22:03:00,
2013-01-31 17:11:00,38.0,12.0,-100.00,SSW,205,9.0,29.0,33,-99.99,,,-99.99,,2013-01-31 22:11:00,
2013-01-31 17:22:00,38.0,11.0,-100.00,SW,220,7.0,22.0,33,-99.99,,,-99.99,,2013-01-31 22:22:00,
2013-01-31 17:33:00,38.0,11.0,-100.00,SW,220,7.0,22.0,33,-99.99,,,-99.99,,2013-01-31 22:33:00,
2013-01-31 17:42:00,37.0,11.0,-100.00,SW,235,7.0,19.0,33,-99.99,,,-99.99,,2013-01-31 22:42:00,
2013-01-31 17:51:00,37.0,11.0,-100.00,SW,235,7.0,19.0,33,-99.99,,,-99.99,,2013-01-31 22:51:00,
2013-01-31 18:03:00,37.0,11.0,-100.00,SW,230,7.0,24.0,33,-99.99,,,-99.99,,2013-01-31 23:03:00,
2013-01-31 18:12:00,37.0,10.0,-100.00,South,180,4.0,21.0,33,-99.99,,,-99.99,,2013-01-31 23:12:00,
2013-01-31 18:22:00,37.0,10.0,-100.00,South,180,4.0,21.0,33,-99.99,,,-99.99,,2013-01-31 23:22:00,
2013-01-31 18:32:00,37.0,11.0,-100.00,SW,215,11.0,25.0,34,-99.99,,,-99.99,,2013-01-31 23:32:00,
2013-01-31 18:42:00,36.0,11.0,-100.00,SSW,205,6.0,19.0,34,-99.99,,,-99.99,,2013-01-31 23:42:00,
2013-01-31 18:52:00,36.0,11.0,-100.00,SSW,205,8.0,23.0,35,-99.99,,,-99.99,,2013-01-31 23:52:00,
2013-01-31 19:02:00,36.0,11.0,-100.00,SSW,205,8.0,23.0,35,-99.99,,,-99.99,,2013-02-01 00:02:00,
2013-01-31 19:11:00,36.0,11.0,-100.00,SSW,210,7.0,21.0,36,-99.99,,,-99.99,,2013-02-01 00:11:00,
2013-01-31 19:22:00,35.0,12.0,-100.00,SW,225,7.0,24.0,38,-99.99,,,-99.99,,2013-02-01 00:22:00,
2013-01-31 19:32:00,35.0,12.0,-100.00,SW,225,7.0,24.0,38,-99.99,,,-99.99,,2013-02-01 00:32:00,
2013-01-31 19:42:00,34.0,13.0,-100.00,SSW,205,8.0,24.0,41,-99.99,,,-99.99,,2013-02-01 00:42:00,
2013-01-31 19:51:00,34.0,13.0,-100.00,South,190,4.0,23.0,43,-99.99,,,-99.99,,2013-02-01 00:51:00,
2013-01-31 20:01:00,34.0,13.0,-100.00,South,190,4.0,23.0,43,-99.99,,,-99.99,,2013-02-01 01:01:00,
2013-01-31 20:11:00,33.0,13.0,-100.00,SW,215,6.0,22.0,43,-99.99,,,-99.99,,2013-02-01 01:11:00,
2013-01-31 20:21:00,33.0,12.0,-100.00,WSW,240,9.0,19.0,41,-99.99,,,-99.99,,2013-02-01 01:21:00,
2013-01-31 20:32:00,33.0,12.0,-100.00,WSW,240,9.0,19.0,41,-99.99,,,-99.99,,2013-02-01 01:32:00,
2013-01-31 20:42:00,32.0,11.0,-100.00,WSW,245,7.0,16.0,40,-99.99,,,-99.99,,2013-02-01 01:42:00,
2013-01-31 20:52:00,32.0,10.0,-100.00,WSW,245,4.0,13.0,39,-99.99,,,-99.99,,2013-02-01 01:52:00,
2013-01-31 21:02:00,32.0,10.0,-100.00,WSW,245,4.0,13.0,39,-99.99,,,-99.99,,2013-02-01 02:02:00,
2013-01-31 21:11:00,32.0,9.0,-100.00,SW,225,4.0,12.0,39,-99.99,,,-99.99,,2013-02-01 02:11:00,
2013-01-31 21:21:00,31.0,9.0,-100.00,West,260,4.0,12.0,39,-99.99,,,-99.99,,2013-02-01 02:21:00,
2013-01-31 21:32:00,31.0,9.0,-100.00,West,260,4.0,12.0,39,-99.99,,,-99.99,,2013-02-01 02:32:00,
2013-01-31 21:42:00,31.0,9.0,-100.00,SW,235,4.0,9.0,39,-99.99,,,-99.99,,2013-02-01 02:42:00,
2013-01-31 21:52:00,31.0,9.0,-100.00,SW,235,4.0,9.0,39,-99.99,,,-99.99,,2013-02-01 02:52:00,
2013-01-31 22:02:00,31.0,8.0,-100.00,WSW,245,3.0,7.0,39,-99.99,,,-99.99,,2013-02-01 03:02:00,
2013-01-31 22:12:00,30.0,8.0,-100.00,SSW,205,1.0,7.0,40,-99.99,,,-99.99,,2013-02-01 03:12:00,
2013-01-31 22:21:00,30.0,8.0,-100.00,SSW,205,1.0,7.0,40,-99.99,,,-99.99,,2013-02-01 03:21:00,
2013-01-31 22:33:00,29.0,8.0,-100.00,SW,215,2.0,4.0,41,-99.99,,,-99.99,,2013-02-01 03:33:00,
2013-01-31 22:42:00,29.0,8.0,-100.00,SSW,205,2.0,4.0,41,-99.99,,,-99.99,,2013-02-01 03:42:00,
2013-01-31 22:51:00,29.0,9.0,-100.00,South,190,1.0,4.0,43,-99.99,,,-99.99,,2013-02-01 03:51:00,
2013-01-31 23:02:00,29.0,9.0,-100.00,South,190,1.0,4.0,43,-99.99,,,-99.99,,2013-02-01 04:02:00,
2013-01-31 23:11:00,28.0,9.0,-100.00,SSW,200,1.0,3.0,43,-99.99,,,-99.99,,2013-02-01 04:11:00,
2013-01-31 23:21:00,28.0,9.0,-100.00,SSW,200,1.0,3.0,43,-99.99,,,-99.99,,2013-02-01 04:21:00,
2013-01-31 23:32:00,28.0,8.0,-100.00,SW,215,2.0,3.0,43,-99.99,,,-99.99,,2013-02-01 04:32:00,
2013-01-31 23:41:00,28.0,9.0,-100.00,SSE,165,1.0,4.0,45,-99.99,,,-99.99,,2013-02-01 04:41:00,
2013-01-31 23:51:00,28.0,9.0,-100.00,SSE,165,1.0,4.0,45,-99.99,,,-99.99,,2013-02-01 04:51:00,